PSLV R/B, 46915

Orbit data source: Space-Track

PSLV R/B, 46915 is space debris in LEO originally from a launch on Sat, 07 Nov 2020 UTC launched from the Sirharikota (SRI). Debris objects in space refer to the collection of defunct objects orbiting the Earth. Examples of debris include non-operational satellites, rocket bodies, and fragments generated from explosions, collisions, or faulty payload assembly.

Loading next visibility...
Identifier
46915, 2020-081L
Orbit
LEO
Last TLE update
7 hours ago
Origin
Manufacturer
VSSC/LPSC
Mission
Spacecraft
Bus & Motor
PS-4DL, Unknown motor
Mass
920 kg wet, 920 kg dry
Launch date (UTC)
2020-11-07 (5 years ago)
Launch vehicle
Unknown
Launch site
Sirharikota (SRI)
Object type
Payload
Rocket body
Debris
Shape & HBR
Cyl + Cyl + 2 Nozzle, Unknown HBR
Radar Cross Section
10.342 m², Large (>1 m²)

Expand to show TLE details & history

TLE from 7 hours ago
0 PSLV R/B
1 46915U 20081L   25186.49013996  .00007012  00000-0  24308-3 0  9999
2 46915  36.8464 242.2873 0026305 186.6059 173.4346 15.29108930257838
Epoch: 2025-07-05T11:45Z
TLE epoch observation values (Epoch: 2025-07-05T11:45:48.092Z)
Latitude
-0.00003°
Longitude
142.10944°
Altitude
495.49 km
Speed
7.609 km/s
True Right ascension
16h 09m 08s
True Declination
0° 00' 00"
Sunlit
Object was in full shadow at epoch
Visualization orbit readout
Latitude
35.04898°
Longitude
-151.00996°
Altitude
487.221 km
Speed
7.623 km/s
Apparent Right ascension
19h 31m 33s
Apparent Declination
0° 50' 56"
Sunlit
Object is in full shadow
Visualization observer readout
Local Sidereal Time
06:16:26
Azimuth
331.631° NNW
Elevation
-47.357°
Doppler factor
1
Orbital elements
Apogee altitude
499.483 km
Perigee altitude
463.394 km
Semi-major axis
6,859.575 km
Eccentricity
0.00263
Inclination
36.8464°
RAAN
242.2873°
Arg. of periapsis
186.6059°
True anomaly
Unknown
Mean anomaly
173.4346°
Eccentric anomaly
Unknown
Mean motion
3.8203 °/min
Orbital period
94.23 mins
BSTAR
0.00024308
Loading maneuver chart data...
Loading SW <> Apogee altitude chart data...
Loading historical data...
Loading historical data...
Loading historical data...
Loading historical data...
Loading historical data...
Loading historical data...
Loading historical data...

PSLV R/B Visibility forecast

Observer location: undefined°, undefined°

Span
Click to sort rows by Start time (UTC) header in descending order
Start Az.
Max El. time (UTC)
Max El. Az.
Max El.
End time (UTC)
End Az.
4 mins2025-07-06 06:46:55.676Z184.966° SSW2025-07-06 06:48:55.676Z151.069° SSE14.841°2025-07-06 06:50:55.676Z118.122° SE
5 mins2025-07-06 08:25:55.676Z219.784° SW2025-07-06 08:27:55.676Z154.002° SSE31.981°2025-07-06 08:30:55.676Z98.675° ESE
5 mins2025-07-06 10:04:55.676Z246.938° WSW2025-07-06 10:06:55.676Z166.892° S37.698°2025-07-06 10:09:55.676Z107.923° ESE
4 mins2025-07-06 11:43:55.676Z242.448° WSW2025-07-06 11:45:55.676Z189.988° SSW25.513°2025-07-06 11:47:55.676Z146.794° SSE
|